Location: Lynch Observatory
(39.9540°N, 75.1861°W)
Time: 10:17:34
(UTC-04:00)

UWE-3 - Pass Details

Date: 01 May 2024
Orbit: 569 x 652 km, 97.8° (Epoch: 25 May)

Event Time Altitude Azimuth Distance (km) Brightness Sun altitude
Rises 02:28:31 0° 31° (NNE) 2,910 ? -30.9°
Reaches altitude 10° 02:31:24 10° 52° (NE) 2,014 ? -30.7°
Enters shadow 02:34:13 17° 92° (E) 1,606 ? -30.4°
